Location: Ponte Samoggia
(44.5667°N, 11.1333°E)
Time: 22:14:03
(UTC+00:00)

USA 229 - Pass Details

Date: 26 May 2022
Orbit: 938 x 1274 km, 63.4° (Epoch: 24 May)

Event Time Altitude Azimuth Distance (km) Brightness Sun altitude
Rises 01:02:37 0° 317° (NW) 4,015 7.0 -19.7°
Reaches altitude 10° 01:05:27 10° 309° (NW) 3,098 6.2 -19.5°
Maximum altitude 01:12:11 38° 246° (WSW) 1,798 4.5 -18.9°
Enters shadow 01:15:15 28° 204° (SSW) 2,161 4.7 -18.6°
